EZY2563 EGGW-LOWS

Flight info

Callsign EZY2563
Flight time 1h 55m
Altitude 39000
Route MATCH Q295 BRAIN M197 REDFA DCT TACHA DCT OTMEC DCT TIVUN DCT ESAMA DCT OSBIT DCT KOMIB L984 SULUS Z650 TIPAM T703 ARBAX T108 OSTES T700 BADIT BADIT2R
Aircraft A320/M-SDE2E3FGHIJ1RWXYZ/LB1

Departure

Time 2026-05-06 05:05
Airport London Luton Airport (EGGW)

Arrival

Time 2026-05-06 07:00
Airport Salzburg Airport (LOWS)
Time Latitude Longitude Altitude Speed Heading
2026-05-06 04:40 51.87888 -0.37925 524 ft 0 kts 73°
2026-05-06 04:56 51.87887 -0.37932 523 ft 2 kts 73°
2026-05-06 04:57 51.87881 -0.37962 523 ft 3 kts 73°
2026-05-06 04:57 51.87876 -0.37989 523 ft 3 kts 99°
2026-05-06 04:57 51.87882 -0.38010 523 ft 3 kts 159°
2026-05-06 04:57 51.87893 -0.38015 523 ft 2 kts 174°
2026-05-06 04:58 51.87906 -0.38017 523 ft 1 kts 174°
2026-05-06 04:58 51.87907 -0.38017 523 ft 0 kts 174°
2026-05-06 05:00 51.87886 -0.38013 523 ft 6 kts 172°
2026-05-06 05:00 51.87849 -0.37991 523 ft 5 kts 152°
2026-05-06 05:01 51.87812 -0.37942 523 ft 13 kts 131°
2026-05-06 05:01 51.87769 -0.37811 523 ft 13 kts 115°
2026-05-06 05:01 51.87727 -0.37667 520 ft 19 kts 115°
2026-05-06 05:01 51.87660 -0.37496 522 ft 16 kts 143°
2026-05-06 05:02 51.87564 -0.37463 522 ft 14 kts 189°
2026-05-06 05:02 51.87501 -0.37556 522 ft 12 kts 255°
2026-05-06 05:02 51.87477 -0.37700 523 ft 17 kts 255°
2026-05-06 05:02 51.87443 -0.37901 523 ft 16 kts 253°
2026-05-06 05:03 51.87413 -0.38015 524 ft 7 kts 226°
2026-05-06 05:03 51.87378 -0.38059 523 ft 6 kts 206°
2026-05-06 05:03 51.87374 -0.38062 523 ft 1 kts 206°
2026-05-06 05:03 51.87349 -0.38082 522 ft 8 kts 206°
2026-05-06 05:04 51.87300 -0.38114 522 ft 8 kts 191°
2026-05-06 05:04 51.87253 -0.38058 524 ft 8 kts 92°
2026-05-06 05:04 51.87264 -0.37985 524 ft 9 kts 75°
2026-05-06 05:04 51.87347 -0.37534 521 ft 80 kts 72°
2026-05-06 05:05 51.87555 -0.36329 522 ft 139 kts 73°
2026-05-06 05:05 51.87819 -0.34677 930 ft 150 kts 72°
2026-05-06 05:05 51.88084 -0.33075 1699 ft 145 kts 69°
2026-05-06 05:05 51.88358 -0.31504 2242 ft 148 kts 69°
2026-05-06 05:06 51.88669 -0.29785 2539 ft 169 kts 69°
2026-05-06 05:06 51.89024 -0.27826 2806 ft 193 kts 69°
2026-05-06 05:06 51.89421 -0.25598 3096 ft 218 kts 71°
2026-05-06 05:06 51.89543 -0.23025 3514 ft 247 kts 99°
2026-05-06 05:07 51.88662 -0.20561 4071 ft 270 kts 136°
2026-05-06 05:07 51.87044 -0.18898 4699 ft 282 kts 151°
2026-05-06 05:07 51.85273 -0.17553 4899 ft 281 kts 156°
2026-05-06 05:07 51.83454 -0.16361 5004 ft 282 kts 158°
2026-05-06 05:08 51.81626 -0.15199 5030 ft 282 kts 158°
2026-05-06 05:08 51.79805 -0.14015 5034 ft 282 kts 157°
2026-05-06 05:08 51.78006 -0.12785 5034 ft 280 kts 153°
2026-05-06 05:08 51.76467 -0.10903 5035 ft 278 kts 128°
2026-05-06 05:09 51.75568 -0.08197 5037 ft 273 kts 102°
2026-05-06 05:09 51.75423 -0.05195 5034 ft 268 kts 80°
2026-05-06 05:09 51.75634 -0.02741 5035 ft 268 kts 79°
2026-05-06 05:09 51.75889 0.00252 5042 ft 270 kts 78°
2026-05-06 05:10 51.76147 0.03292 5776 ft 273 kts 78°
2026-05-06 05:10 51.76402 0.06353 6671 ft 277 kts 78°
2026-05-06 05:10 51.76657 0.09452 7484 ft 281 kts 79°
2026-05-06 05:10 51.76915 0.12600 8330 ft 284 kts 80°
2026-05-06 05:11 51.77173 0.15770 9181 ft 287 kts 80°
2026-05-06 05:11 51.77435 0.18979 10014 ft 290 kts 81°
2026-05-06 05:11 51.77705 0.22274 10440 ft 307 kts 80°
2026-05-06 05:11 51.77995 0.25820 10654 ft 330 kts 81°
2026-05-06 05:12 51.78304 0.29624 10845 ft 352 kts 81°
2026-05-06 05:12 51.78627 0.33605 11355 ft 361 kts 81°
2026-05-06 05:12 51.78953 0.37658 12007 ft 366 kts 81°
2026-05-06 05:12 51.79281 0.41764 12677 ft 371 kts 81°
2026-05-06 05:13 51.79609 0.45919 13319 ft 376 kts 82°
2026-05-06 05:13 51.79939 0.50133 13971 ft 380 kts 82°
2026-05-06 05:13 51.80268 0.54390 14555 ft 384 kts 82°
2026-05-06 05:13 51.80595 0.58628 15123 ft 387 kts 82°
2026-05-06 05:14 51.80930 0.62966 15717 ft 391 kts 82°
2026-05-06 05:14 51.81427 0.67304 16243 ft 396 kts 75°
2026-05-06 05:14 51.82106 0.71637 16833 ft 399 kts 75°
2026-05-06 05:14 51.82793 0.76063 17418 ft 403 kts 75°
2026-05-06 05:15 51.83465 0.80422 17978 ft 407 kts 76°
2026-05-06 05:15 51.84174 0.84862 18526 ft 410 kts 74°
2026-05-06 05:15 51.84957 0.89315 19036 ft 413 kts 73°
2026-05-06 05:15 51.85789 0.93783 19548 ft 416 kts 73°
2026-05-06 05:16 51.86515 0.98336 20027 ft 419 kts 80°
2026-05-06 05:16 51.86977 1.03006 20553 ft 421 kts 82°
2026-05-06 05:16 51.87420 1.07697 21050 ft 424 kts 82°
2026-05-06 05:16 51.87871 1.12432 21507 ft 426 kts 82°
2026-05-06 05:17 51.88369 1.17170 21972 ft 429 kts 78°
2026-05-06 05:17 51.89059 1.21882 22412 ft 432 kts 77°
2026-05-06 05:17 51.89778 1.26613 22864 ft 434 kts 77°
2026-05-06 05:17 51.90509 1.31365 23272 ft 437 kts 77°
2026-05-06 05:18 51.91260 1.36141 23669 ft 439 kts 74°
2026-05-06 05:18 51.92336 1.40785 23982 ft 442 kts 69°
2026-05-06 05:18 51.93487 1.45413 24337 ft 444 kts 69°
2026-05-06 05:18 51.94645 1.50063 24649 ft 446 kts 69°
2026-05-06 05:19 51.95797 1.54698 25267 ft 440 kts 69°
2026-05-06 05:19 51.96934 1.59286 25731 ft 439 kts 69°
2026-05-06 05:19 51.98077 1.63893 26125 ft 440 kts 69°
2026-05-06 05:19 51.99170 1.68547 26444 ft 442 kts 73°
2026-05-06 05:20 51.99959 1.73374 26790 ft 443 kts 77°
2026-05-06 05:20 52.00714 1.78236 27115 ft 446 kts 77°
2026-05-06 05:20 52.01472 1.83120 27424 ft 448 kts 77°
2026-05-06 05:20 52.02234 1.88033 27753 ft 449 kts 77°
2026-05-06 05:21 52.02997 1.92967 28045 ft 452 kts 77°
2026-05-06 05:21 52.03760 1.97922 28366 ft 453 kts 77°
2026-05-06 05:21 52.04525 2.02898 28672 ft 454 kts 77°
2026-05-06 05:21 52.05291 2.07878 28980 ft 455 kts 77°
2026-05-06 05:22 52.06057 2.12881 29236 ft 458 kts 78°
2026-05-06 05:22 52.06822 2.17909 29510 ft 459 kts 77°
2026-05-06 05:22 52.07588 2.22956 29754 ft 461 kts 78°
2026-05-06 05:22 52.08355 2.28021 30004 ft 462 kts 78°
2026-05-06 05:23 52.09122 2.33102 30217 ft 463 kts 78°
2026-05-06 05:23 52.09886 2.38187 30503 ft 462 kts 78°
2026-05-06 05:23 52.11397 2.48337 31048 ft 461 kts 78°
2026-05-06 05:24 52.12212 2.53378 31367 ft 460 kts 76°
2026-05-06 05:24 52.13124 2.58355 31675 ft 459 kts 74°
2026-05-06 05:24 52.14101 2.63298 31969 ft 459 kts 73°
2026-05-06 05:24 52.15101 2.68226 32236 ft 458 kts 73°
2026-05-06 05:25 52.16093 2.73144 32523 ft 458 kts 73°
2026-05-06 05:25 52.17087 2.78066 32789 ft 457 kts 73°
2026-05-06 05:25 52.18071 2.82986 33076 ft 457 kts 73°
2026-05-06 05:25 52.19057 2.87909 33348 ft 456 kts 73°
2026-05-06 05:26 52.20033 2.92825 33644 ft 456 kts 73°
2026-05-06 05:26 52.21012 2.97741 33889 ft 455 kts 73°
2026-05-06 05:26 52.21985 3.02643 34178 ft 454 kts 73°
2026-05-06 05:26 52.22964 3.07542 34370 ft 455 kts 73°
2026-05-06 05:27 52.23934 3.12446 34600 ft 454 kts 73°
2026-05-06 05:27 52.24896 3.17285 34759 ft 456 kts 73°
2026-05-06 05:27 52.25871 3.22216 34935 ft 456 kts 73°
2026-05-06 05:27 52.26851 3.27150 35089 ft 458 kts 73°
2026-05-06 05:28 52.27828 3.32094 35293 ft 458 kts 73°
2026-05-06 05:28 52.28809 3.37045 35445 ft 459 kts 73°
2026-05-06 05:28 52.29784 3.41998 35645 ft 458 kts 73°
2026-05-06 05:28 52.30763 3.46964 35801 ft 459 kts 73°
2026-05-06 05:29 52.31740 3.51927 35984 ft 459 kts 73°
2026-05-06 05:29 52.32722 3.56890 36116 ft 460 kts 73°
2026-05-06 05:29 52.33706 3.61874 36280 ft 460 kts 73°
2026-05-06 05:29 52.34690 3.66864 36422 ft 461 kts 73°
2026-05-06 05:30 52.35668 3.71849 36609 ft 461 kts 73°
2026-05-06 05:30 52.36648 3.76841 36737 ft 461 kts 73°
2026-05-06 05:30 52.37626 3.81843 36881 ft 461 kts 73°
2026-05-06 05:30 52.38605 3.86849 36906 ft 463 kts 73°
2026-05-06 05:31 52.40565 3.96882 36904 ft 463 kts 73°
2026-05-06 05:31 52.42522 4.06897 36900 ft 461 kts 73°
2026-05-06 05:32 52.44474 4.16890 36898 ft 461 kts 73°
2026-05-06 05:32 52.46413 4.26817 36887 ft 461 kts 73°
2026-05-06 05:33 52.48362 4.36827 36887 ft 461 kts 73°
2026-05-06 05:33 52.50307 4.46847 36880 ft 461 kts 73°
2026-05-06 05:34 52.52250 4.56868 36882 ft 461 kts 74°
2026-05-06 05:34 52.54192 4.66903 36878 ft 461 kts 73°
2026-05-06 05:35 52.56129 4.76946 36875 ft 461 kts 74°
2026-05-06 05:35 52.58066 4.87005 36876 ft 461 kts 74°
2026-05-06 05:36 52.59997 4.97057 36878 ft 461 kts 73°
2026-05-06 05:36 52.61922 5.07117 36881 ft 461 kts 74°
2026-05-06 05:37 52.63775 5.16850 36887 ft 460 kts 74°
2026-05-06 05:37 52.65687 5.26903 36888 ft 460 kts 74°
2026-05-06 05:38 52.67616 5.36958 36877 ft 461 kts 74°
2026-05-06 05:38 52.69545 5.47032 36870 ft 461 kts 74°
2026-05-06 05:39 52.71460 5.57048 36862 ft 461 kts 74°
2026-05-06 05:39 52.73383 5.67126 36868 ft 461 kts 74°
2026-05-06 05:40 52.75303 5.77210 36873 ft 461 kts 74°
2026-05-06 05:40 52.77218 5.87294 36869 ft 460 kts 74°
2026-05-06 05:41 52.79131 5.97391 36867 ft 460 kts 74°
2026-05-06 05:41 52.81039 6.07487 36859 ft 460 kts 74°
2026-05-06 05:42 52.82974 6.17579 36861 ft 460 kts 74°
2026-05-06 05:42 52.84911 6.27668 36862 ft 460 kts 74°
2026-05-06 05:43 52.86863 6.37765 36857 ft 461 kts 74°
2026-05-06 05:43 52.88800 6.47800 36854 ft 461 kts 74°
2026-05-06 05:44 52.90748 6.57911 36861 ft 461 kts 74°
2026-05-06 05:44 52.92717 6.68011 36861 ft 461 kts 74°
2026-05-06 05:45 52.94363 6.76401 36861 ft 461 kts 74°
2026-05-06 05:45 52.96355 6.86575 36864 ft 460 kts 74°
2026-05-06 05:46 52.98328 6.96679 36861 ft 460 kts 74°
2026-05-06 05:46 53.00300 7.06793 36859 ft 460 kts 74°
2026-05-06 05:47 53.02260 7.16834 36849 ft 460 kts 75°
2026-05-06 05:47 53.04253 7.26928 36862 ft 460 kts 75°
2026-05-06 05:48 53.06246 7.37035 36853 ft 460 kts 75°
2026-05-06 05:48 53.08239 7.47162 36850 ft 461 kts 75°
2026-05-06 05:49 53.10230 7.57292 36845 ft 461 kts 75°
2026-05-06 05:49 53.12218 7.67431 36840 ft 461 kts 75°
2026-05-06 05:50 53.14214 7.77565 36848 ft 460 kts 75°
2026-05-06 05:50 53.16207 7.87707 36857 ft 460 kts 75°
2026-05-06 05:51 53.18196 7.97840 36859 ft 460 kts 75°
2026-05-06 05:51 53.20179 8.07983 36853 ft 460 kts 75°
2026-05-06 05:52 53.22158 8.18125 36852 ft 460 kts 75°
2026-05-06 05:52 53.24133 8.28269 36843 ft 459 kts 75°
2026-05-06 05:53 53.26099 8.38402 36848 ft 459 kts 75°
2026-05-06 05:53 53.28062 8.48544 36853 ft 459 kts 75°
2026-05-06 05:54 53.30022 8.58693 36858 ft 459 kts 75°
2026-05-06 05:54 53.31962 8.68776 36853 ft 458 kts 75°
2026-05-06 05:55 53.33912 8.78931 36841 ft 458 kts 75°
2026-05-06 05:55 53.35858 8.89081 36844 ft 458 kts 75°
2026-05-06 05:56 53.37799 8.99232 36843 ft 458 kts 75°
2026-05-06 05:56 53.39739 9.09397 36850 ft 458 kts 75°
2026-05-06 05:57 53.41686 9.19568 36840 ft 458 kts 75°
2026-05-06 05:57 53.43631 9.29733 36839 ft 458 kts 75°
2026-05-06 05:58 53.45574 9.39914 36843 ft 458 kts 75°
2026-05-06 05:58 53.47512 9.50096 36858 ft 458 kts 75°
2026-05-06 05:59 53.49444 9.60278 36867 ft 458 kts 75°
2026-05-06 05:59 53.51372 9.70457 36868 ft 457 kts 75°
2026-05-06 06:00 53.53279 9.80548 36872 ft 457 kts 75°
2026-05-06 06:00 53.55202 9.90740 36871 ft 457 kts 75°
2026-05-06 06:01 53.57118 10.00930 36870 ft 457 kts 75°
2026-05-06 06:01 53.59041 10.11138 36861 ft 458 kts 75°
2026-05-06 06:02 53.60524 10.21483 36848 ft 450 kts 93°
2026-05-06 06:02 53.60230 10.26672 36842 ft 442 kts 108°
2026-05-06 06:02 53.59181 10.31471 36830 ft 435 kts 122°
2026-05-06 06:03 53.57474 10.35615 36827 ft 428 kts 136°
2026-05-06 06:03 53.55248 10.38867 36821 ft 422 kts 150°
2026-05-06 06:03 53.52643 10.41071 36807 ft 419 kts 163°
2026-05-06 06:03 53.49875 10.42594 36813 ft 419 kts 163°
2026-05-06 06:04 53.44311 10.45635 36813 ft 421 kts 163°
2026-05-06 06:04 53.38731 10.48691 36818 ft 423 kts 163°
2026-05-06 06:05 53.33133 10.51745 36822 ft 424 kts 163°
2026-05-06 06:05 53.27525 10.54794 36818 ft 424 kts 163°
2026-05-06 06:06 53.21909 10.57841 36817 ft 425 kts 163°
2026-05-06 06:06 53.16280 10.60871 36818 ft 425 kts 163°
2026-05-06 06:07 53.10651 10.63901 36819 ft 426 kts 163°
2026-05-06 06:07 53.05018 10.66939 36819 ft 426 kts 163°
2026-05-06 06:08 52.99415 10.69945 36820 ft 426 kts 163°
2026-05-06 06:08 52.93773 10.72968 36803 ft 426 kts 163°
2026-05-06 06:09 52.88132 10.75973 36806 ft 426 kts 163°
2026-05-06 06:09 52.82479 10.78962 36798 ft 426 kts 163°
2026-05-06 06:10 52.76828 10.81959 36803 ft 426 kts 163°
2026-05-06 06:10 52.71177 10.84956 36796 ft 427 kts 163°
2026-05-06 06:11 52.65514 10.87950 36791 ft 428 kts 163°
2026-05-06 06:11 52.59842 10.90927 36783 ft 428 kts 163°
2026-05-06 06:12 52.54168 10.93899 36781 ft 428 kts 163°
2026-05-06 06:12 52.48492 10.96875 36772 ft 429 kts 163°
2026-05-06 06:13 52.42803 10.99839 36753 ft 429 kts 164°
2026-05-06 06:13 52.37101 11.02795 36759 ft 430 kts 164°
2026-05-06 06:14 52.31400 11.05749 36760 ft 430 kts 164°
2026-05-06 06:14 52.25693 11.08712 36764 ft 430 kts 164°
2026-05-06 06:15 52.19979 11.11659 36754 ft 431 kts 164°
2026-05-06 06:15 52.14260 11.14589 36757 ft 431 kts 164°
2026-05-06 06:16 52.08571 11.17509 36757 ft 432 kts 164°
2026-05-06 06:16 52.02838 11.20444 36753 ft 432 kts 164°
2026-05-06 06:17 51.97106 11.23371 36753 ft 432 kts 164°
2026-05-06 06:17 51.91371 11.26299 36750 ft 432 kts 165°
2026-05-06 06:18 51.85637 11.29210 36735 ft 432 kts 165°
2026-05-06 06:18 51.79896 11.32109 36748 ft 432 kts 165°
2026-05-06 06:19 51.74161 11.35005 36749 ft 432 kts 165°
2026-05-06 06:19 51.68426 11.37895 36754 ft 432 kts 165°
2026-05-06 06:20 51.62685 11.40785 36750 ft 432 kts 165°
2026-05-06 06:20 51.56952 11.43669 36746 ft 432 kts 165°
2026-05-06 06:21 51.51213 11.46534 36758 ft 432 kts 165°
2026-05-06 06:21 51.45470 11.49385 36759 ft 432 kts 165°
2026-05-06 06:22 51.39764 11.52211 36762 ft 432 kts 165°
2026-05-06 06:22 51.34034 11.55054 36745 ft 431 kts 165°
2026-05-06 06:23 51.28301 11.57895 36741 ft 431 kts 165°
2026-05-06 06:23 51.22572 11.60729 36746 ft 431 kts 165°
2026-05-06 06:24 51.16834 11.63553 36746 ft 431 kts 166°
2026-05-06 06:24 51.11096 11.66357 36744 ft 432 kts 166°
2026-05-06 06:25 51.05354 11.69169 36746 ft 432 kts 166°
2026-05-06 06:26 50.96742 11.73368 36751 ft 432 kts 166°
2026-05-06 06:26 50.90995 11.76165 36749 ft 432 kts 166°
2026-05-06 06:27 50.85243 11.78957 36751 ft 432 kts 166°
2026-05-06 06:27 50.79489 11.81739 36733 ft 432 kts 166°
2026-05-06 06:28 50.73734 11.84513 36749 ft 432 kts 166°
2026-05-06 06:28 50.67981 11.87287 36743 ft 432 kts 166°
2026-05-06 06:29 50.62231 11.90053 36760 ft 432 kts 166°
2026-05-06 06:29 50.56482 11.92813 36773 ft 432 kts 166°
2026-05-06 06:30 50.50731 11.95544 36788 ft 432 kts 167°
2026-05-06 06:30 50.45022 11.98243 36793 ft 432 kts 167°
2026-05-06 06:31 50.39237 12.00996 36796 ft 432 kts 166°
2026-05-06 06:31 50.33528 12.03720 36804 ft 432 kts 166°
2026-05-06 06:32 50.27782 12.06445 36793 ft 431 kts 167°
2026-05-06 06:32 50.22037 12.09145 36782 ft 431 kts 168°
2026-05-06 06:33 50.16254 12.11574 36791 ft 430 kts 170°
2026-05-06 06:33 50.10455 12.13803 36797 ft 429 kts 170°
2026-05-06 06:34 50.04653 12.16029 36797 ft 429 kts 170°
2026-05-06 06:34 49.98861 12.18312 36794 ft 429 kts 170°
2026-05-06 06:35 49.93076 12.20639 36800 ft 429 kts 170°
2026-05-06 06:35 49.88275 12.22558 36802 ft 429 kts 170°
2026-05-06 06:36 49.82494 12.24833 36812 ft 428 kts 170°
2026-05-06 06:36 49.76718 12.27095 36804 ft 428 kts 170°
2026-05-06 06:37 49.70944 12.29357 36806 ft 427 kts 171°
2026-05-06 06:37 49.65198 12.31603 36576 ft 425 kts 171°
2026-05-06 06:37 49.62340 12.32721 36323 ft 423 kts 171°
2026-05-06 06:38 49.59488 12.33835 36068 ft 422 kts 171°
2026-05-06 06:38 49.56648 12.34943 35813 ft 421 kts 171°
2026-05-06 06:38 49.53810 12.36052 35567 ft 420 kts 171°
2026-05-06 06:38 49.50976 12.37159 35300 ft 420 kts 171°
2026-05-06 06:39 49.48147 12.38263 35064 ft 419 kts 171°
2026-05-06 06:39 49.45356 12.39350 34829 ft 419 kts 171°
2026-05-06 06:39 49.42554 12.40436 34578 ft 418 kts 171°
2026-05-06 06:39 49.39729 12.41523 33818 ft 420 kts 171°
2026-05-06 06:40 49.36890 12.42613 32946 ft 420 kts 171°
2026-05-06 06:40 49.34092 12.43697 32497 ft 411 kts 171°
2026-05-06 06:40 49.31329 12.44766 31555 ft 415 kts 171°
2026-05-06 06:40 49.28521 12.45843 30638 ft 417 kts 172°
2026-05-06 06:41 49.25708 12.46920 29981 ft 415 kts 172°
2026-05-06 06:41 49.22926 12.47990 29346 ft 410 kts 172°
2026-05-06 06:41 49.20198 12.49043 28723 ft 405 kts 172°
2026-05-06 06:41 49.17513 12.50080 28194 ft 399 kts 172°
2026-05-06 06:42 49.14835 12.51112 27619 ft 395 kts 172°
2026-05-06 06:42 49.12186 12.52132 27071 ft 391 kts 172°
2026-05-06 06:42 49.09563 12.53134 26508 ft 387 kts 172°
2026-05-06 06:42 49.06960 12.54126 25960 ft 384 kts 171°
2026-05-06 06:43 49.04378 12.55107 25410 ft 381 kts 171°
2026-05-06 06:43 49.01808 12.56080 24872 ft 379 kts 171°
2026-05-06 06:43 48.99251 12.57050 24337 ft 378 kts 171°
2026-05-06 06:43 48.96752 12.58001 23830 ft 376 kts 171°
2026-05-06 06:44 48.94249 12.58949 23306 ft 375 kts 171°
2026-05-06 06:44 48.91730 12.59907 22788 ft 372 kts 171°
2026-05-06 06:44 48.89236 12.60858 22312 ft 368 kts 171°
2026-05-06 06:44 48.86768 12.61793 21877 ft 363 kts 171°
2026-05-06 06:45 48.84326 12.62717 21435 ft 359 kts 171°
2026-05-06 06:45 48.81919 12.63625 21004 ft 355 kts 171°
2026-05-06 06:45 48.79535 12.64525 20591 ft 351 kts 170°
2026-05-06 06:45 48.77178 12.65412 20160 ft 347 kts 170°
2026-05-06 06:46 48.74871 12.66278 19741 ft 345 kts 170°
2026-05-06 06:46 48.72545 12.67153 19305 ft 344 kts 170°
2026-05-06 06:46 48.70231 12.68016 18836 ft 342 kts 171°
2026-05-06 06:46 48.67908 12.68743 18383 ft 340 kts 173°
2026-05-06 06:47 48.65579 12.69355 17878 ft 339 kts 174°
2026-05-06 06:47 48.63252 12.69917 17389 ft 338 kts 174°
2026-05-06 06:47 48.60937 12.70467 16906 ft 336 kts 174°
2026-05-06 06:47 48.58630 12.71006 16421 ft 335 kts 175°
2026-05-06 06:48 48.56331 12.71496 15974 ft 332 kts 175°
2026-05-06 06:48 48.54055 12.71963 15597 ft 329 kts 175°
2026-05-06 06:48 48.51787 12.72424 15128 ft 329 kts 175°
2026-05-06 06:48 48.49517 12.72888 14649 ft 329 kts 175°
2026-05-06 06:49 48.47251 12.73359 14162 ft 329 kts 175°
2026-05-06 06:49 48.44977 12.73836 13675 ft 330 kts 175°
2026-05-06 06:49 48.42706 12.74319 13134 ft 329 kts 174°
2026-05-06 06:49 48.40444 12.74803 12647 ft 328 kts 174°
2026-05-06 06:50 48.38210 12.75502 12141 ft 328 kts 169°
2026-05-06 06:50 48.36001 12.76316 11634 ft 326 kts 168°
2026-05-06 06:50 48.33799 12.77125 11124 ft 325 kts 168°
2026-05-06 06:50 48.31602 12.77927 10610 ft 324 kts 168°
2026-05-06 06:51 48.29439 12.78712 10424 ft 313 kts 168°
2026-05-06 06:51 48.27364 12.79466 10300 ft 301 kts 168°
2026-05-06 06:51 48.25395 12.80184 10177 ft 290 kts 168°
2026-05-06 06:51 48.23434 12.80898 9955 ft 283 kts 168°
2026-05-06 06:52 48.21560 12.81578 9840 ft 280 kts 168°
2026-05-06 06:52 48.19673 12.82260 9383 ft 282 kts 168°
2026-05-06 06:52 48.17739 12.82956 8714 ft 287 kts 167°
2026-05-06 06:52 48.15818 12.83647 8071 ft 281 kts 167°
2026-05-06 06:53 48.13934 12.84328 7445 ft 276 kts 167°
2026-05-06 06:53 48.12087 12.84998 6828 ft 271 kts 167°
2026-05-06 06:53 48.10273 12.85653 6224 ft 266 kts 167°
2026-05-06 06:53 48.08490 12.86299 5602 ft 261 kts 167°
2026-05-06 06:54 48.06794 12.86915 5442 ft 239 kts 166°
2026-05-06 06:54 48.05235 12.87483 5398 ft 224 kts 166°
2026-05-06 06:54 48.03795 12.88004 5344 ft 213 kts 166°
2026-05-06 06:54 48.02396 12.88508 5287 ft 202 kts 166°
2026-05-06 06:55 48.01050 12.88992 5218 ft 199 kts 166°
2026-05-06 06:55 47.99684 12.89305 5130 ft 199 kts 179°
2026-05-06 06:55 47.98304 12.89334 5045 ft 198 kts 179°
2026-05-06 06:55 47.96925 12.89431 4933 ft 198 kts 168°
2026-05-06 06:56 47.95636 12.90065 4718 ft 193 kts 158°
2026-05-06 06:56 47.94416 12.90826 4445 ft 189 kts 157°
2026-05-06 06:56 47.93246 12.91570 4196 ft 177 kts 157°
2026-05-06 06:56 47.92168 12.92255 3979 ft 161 kts 157°
2026-05-06 06:57 47.91185 12.92880 3766 ft 153 kts 155°
2026-05-06 06:57 47.90222 12.93492 3566 ft 149 kts 155°
2026-05-06 06:57 47.89273 12.94094 3372 ft 147 kts 155°
2026-05-06 06:57 47.88328 12.94695 3173 ft 148 kts 155°
2026-05-06 06:58 47.87385 12.95295 2982 ft 149 kts 155°
2026-05-06 06:58 47.86430 12.95901 2790 ft 149 kts 154°
2026-05-06 06:58 47.85479 12.96503 2575 ft 149 kts 155°
2026-05-06 06:58 47.84549 12.97092 2380 ft 148 kts 155°
2026-05-06 06:59 47.83605 12.97693 2193 ft 146 kts 155°
2026-05-06 06:59 47.82678 12.98278 2012 ft 144 kts 156°
2026-05-06 06:59 47.81777 12.98836 1808 ft 140 kts 156°
2026-05-06 06:59 47.80889 12.99402 1595 ft 138 kts 156°
2026-05-06 07:00 47.80011 12.99958 1440 ft 134 kts 157°
2026-05-06 07:00 47.79280 13.00428 1422 ft 80 kts 157°
2026-05-06 07:00 47.78975 13.00622 1424 ft 35 kts 157°
2026-05-06 07:00 47.78758 13.00760 1421 ft 32 kts 157°
2026-05-06 07:01 47.78601 13.00850 1421 ft 19 kts 169°
2026-05-06 07:01 47.78544 13.00735 1424 ft 14 kts 247°
2026-05-06 07:01 47.78558 13.00622 1422 ft 10 kts 321°
2026-05-06 07:01 47.78623 13.00577 1422 ft 11 kts 338°
2026-05-06 07:02 47.78690 13.00534 1421 ft 10 kts 336°
2026-05-06 07:02 47.78755 13.00492 1421 ft 10 kts 336°
2026-05-06 07:02 47.78813 13.00455 1422 ft 8 kts 337°
2026-05-06 07:02 47.78897 13.00404 1425 ft 19 kts 339°
2026-05-06 07:03 47.78955 13.00254 1422 ft 18 kts 274°
2026-05-06 07:03 47.79012 13.00119 1422 ft 15 kts 334°
2026-05-06 07:03 47.79097 13.00065 1422 ft 13 kts 337°
2026-05-06 07:03 47.79197 13.00002 1422 ft 15 kts 337°
2026-05-06 07:04 47.79245 12.99924 1422 ft 8 kts 284°
2026-05-06 07:04 47.79253 12.99869 1422 ft 2 kts 283°
2026-05-06 07:04 47.79253 12.99867 1422 ft 0 kts 283°